{"data":{"norad_id":57889,"epoch":"2026-09-22T11:40:35.774688Z","epoch_age_seconds":137148,"freshness":"FRESH","line1":"1 57889U 23145D   26265.48652517  .00003906  00000+0  19413-3 0  9999","line2":"2 57889  34.9924 337.8421 0009177 255.4852 104.4843 15.17083578167679","mean_motion":15.17083578,"eccentricity":0.0009177,"inclination_deg":34.9924,"raan_deg":337.8421,"arg_perigee_deg":255.4852,"mean_anomaly_deg":104.4843,"bstar":0.00019413,"rev_number":16767,"period_min":94.918962994668,"perigee_km":508.33471624777,"apogee_km":520.98575629522,"semimajor_km":6892.7972362715,"source":"CELESTRAK","updated_at":"2026-09-23T09:00:18.434046Z"}}